SKYSAT-C7

Last updated on Sun Jun 21 2026 00:02:52 GMT+0000 (Coordinated Universal Time)

1 42991U 17068E 26171.38225694 .00009012 00000+0 25123-3 0 9990 2 42991 97.4541 309.0621 0007174 97.6868 262.5191 15.36980206482865
UTC large
Height (km)
Speed (km/s)
/
Latitude / Longitude
Inclination (degrees)
Orbital Period (minutes)
Azimuth
Elevation
Range (km)
Doppler Factor

Next 0 passes for location: London (51.5072 / 0.1276)

No passes found over London.
SKYSAT-C7